Weather History for Guthrie, OK

Change the Weather History Date:

Wednesday, September 12, 2012

  Actual Average Record
Temperature  
Mean Temperature 82 °F -  
Max Temperature 93 °F 89 °F 100 °F (2011)
Min Temperature 70 °F 64 °F 48 °F (1959)
Cooling Degree Days 16    
Growing Degree Days 32 (Base 50)    
Moisture  
Dew Point 57 °F    
Average Humidity 43    
Maximum Humidity 58    
Minimum Humidity 33    
Precipitation  
Precipitation 0.00 in - - ()
Sea Level Pressure  
Sea Level Pressure 29.95 in    
Wind  
Wind Speed 13 mph (South)    
Max Wind Speed 21 mph    
Max Gust Speed 29 mph    
Visibility 10 miles    
Events      
Averages and records for this station are not official NWS values.
T = Trace of Precipitation, MM = Missing Value Source: NWS Daily Summary

Daily Weather History Graph

Daily Weather History Graph

Search for Another Location

Airport:

Trip Planner

Search our weather history database for the weather conditions in past years. The results will help you decide how hot, cold, wet, or windy it might be!

Date:

Astronomy

Sep. 12, 2012 Rise Set
Actual Time 7:10 AM CDT 7:40 PM CDT
Civil Twilight 6:44 AM CDT 8:06 PM CDT
Nautical Twilight 6:14 AM CDT 8:36 PM CDT
Astronomical Twilight 5:43 AM CDT 9:07 PM CDT
Moon 3:34 AM CDT (9/12) 5:24 PM CDT (9/12)
Length of Visible Light 13h 21m
Length of Day
12h 30m
Waning Crescent, 13% of the Moon is Illuminated
Sep 12
Waning Crescent
Sep 15
New
Sep 22
First Quarter
Sep 29
Full
Oct 8
Last Quarter

Hourly Weather History & Observations

Time (CDT) Temp. Heat Index Dew Point Humidity Pressure Visibility Wind Dir Wind Speed Gust Speed Precip Events Conditions
12:53 AM 77.0 °F - 50.0 °F 39% 29.95 in 10.0 mi South 11.5 mph - N/A   Clear
1:53 AM 75.9 °F - 51.1 °F 42% 29.94 in 10.0 mi SSE 12.7 mph - N/A   Clear
2:53 AM 75.0 °F - 52.0 °F 44% 29.94 in 10.0 mi South 10.4 mph - N/A   Clear
3:53 AM 73.9 °F - 52.0 °F 46% 29.94 in 10.0 mi SSE 10.4 mph - N/A   Clear
4:53 AM 73.9 °F - 52.0 °F 46% 29.94 in 10.0 mi SSE 10.4 mph - N/A   Clear
5:53 AM 71.1 °F - 53.1 °F 53% 29.94 in 10.0 mi SSE 10.4 mph - N/A   Clear
6:53 AM 70.0 °F - 54.0 °F 57% 29.95 in 10.0 mi SSE 12.7 mph - N/A   Clear
7:53 AM 72.0 °F - 55.9 °F 57% 29.97 in 10.0 mi South 12.7 mph - N/A   Clear
8:53 AM 75.9 °F - 60.1 °F 58% 29.98 in 10.0 mi South 16.1 mph 26.5 mph N/A   Clear
9:53 AM 80.1 °F 81.1 °F 61.0 °F 52% 29.99 in 10.0 mi South 17.3 mph 23.0 mph N/A   Clear
10:53 AM 84.0 °F 84.5 °F 62.1 °F 47% 29.99 in 10.0 mi South 18.4 mph - N/A   Clear
11:53 AM 86.0 °F 86.8 °F 63.0 °F 46% 29.99 in 10.0 mi South 17.3 mph 26.5 mph N/A   Clear
12:53 PM 89.1 °F 89.3 °F 62.1 °F 40% 29.97 in 10.0 mi South 20.7 mph 28.8 mph N/A   Clear
1:53 PM 91.0 °F 90.9 °F 61.0 °F 36% 29.95 in 10.0 mi South 18.4 mph 26.5 mph N/A   Clear
2:53 PM 93.0 °F 92.7 °F 60.1 °F 33% 29.93 in 10.0 mi SSW 18.4 mph 28.8 mph N/A   Clear
3:53 PM 93.0 °F 92.7 °F 60.1 °F 33% 29.91 in 10.0 mi South 13.8 mph 23.0 mph N/A   Clear
4:53 PM 91.9 °F 91.5 °F 60.1 °F 34% 29.91 in 10.0 mi South 13.8 mph 25.3 mph N/A   Clear
5:53 PM 91.9 °F 91.2 °F 59.0 °F 33% 29.91 in 10.0 mi SSW 15.0 mph 20.7 mph N/A   Clear
6:53 PM 90.0 °F 88.6 °F 57.0 °F 33% 29.93 in 10.0 mi South 11.5 mph - N/A   Clear
7:53 PM 84.9 °F 83.7 °F 55.9 °F 37% 29.94 in 10.0 mi SSE 6.9 mph - N/A   Clear
8:53 PM 82.9 °F 82.1 °F 55.9 °F 39% 29.96 in 10.0 mi SSE 6.9 mph - N/A   Clear
9:53 PM 82.0 °F 81.6 °F 55.9 °F 41% 29.97 in 10.0 mi SSE 11.5 mph - N/A   Clear
10:53 PM 79.0 °F - 55.0 °F 44% 29.99 in 10.0 mi SSE 9.2 mph - N/A   Clear
11:53 PM 78.1 °F - 55.0 °F 45% 29.99 in 10.0 mi SSE 11.5 mph 17.3 mph N/A   Clear